Starlink 4629

operational
NORAD ID: 53968 Int'l Des: 2022-125 Owner: SPXS Country: US Constellation: starlink
LEOCIRCULAR

Starlink 4629について

説明を読み込み中...

リアルタイム位置

3D地球を読み込み中...

次回通過

高度履歴

Altitude vs Time

uPlot chart will show altitude changes over time

軌道要素

1 53968U 22125E 25258.08970786 .00000695 00000-0 61725-4 0 9995
2 53968 53.2171 292.3402 0001264 81.6703 278.4433 15.08838749162814
Epoch: Sep 15, 2025 • Age: 11 hours

現在のステータス

高度 544.3 km
速度 7.60 km/s
衛星直下点 48.21°N, 148°E
打ち上げ日 Oct 5, 2022
運用期間 2.9 years
タイプ internet

技術仕様

分類 Payload
質量 305.00 kg
乾燥質量 290.00 kg
総質量 305.00 kg
長さ 0.20 m
直径 2.80 m
スパン 9.00 m
形状 Box + pan
製造者 SPXS
バスタイプ Starlink
フェーズステータス In Orbit
所有者/国 SPXS/US

大規模コンステレーション

Loading constellations...